Regional Weather Roundup
Issued by NWS Huntsville, AL

Home | Current Version | Previous Version | Text Only | Print | Product List | Glossary On
Versions: 1 2 3 4 5 6 7 8 9 10 11 12 13 14 15 16 17 18 19 20 21 22 23 24 25 26 27 28 29 30 31 32 33 34 35 36 37 38 39 40 41 42 43 44 45 46 47 48 49 50
000
ASUS44 KHUN 212210
RWRHUN

WEATHER ROUNDUP FOR THE TENNESSEE VALLEY
NATIONAL WEATHER SERVICE HUNTSVILLE AL
500 PM CDT THU SEP 21 2017

ALZ001>004-212300-
NORTHWEST ALABAMA

CITY           SKY/WX    TMP DP  RH WIND       PRES   REMARKS
COURTLAND HCN    N/A     77 N/A N/A NW9         N/A
RUSSELLVILLE     N/A     73 N/A N/A MISG        N/A
SHOALS AIRPORT CLOUDY    76  70  82 VRB5      30.03F
SHOALS TVA RES   N/A     73 N/A N/A MISG        N/A
$$

ALZ005>007-016-212300-
NORTH CENTRAL ALABAMA

CITY           SKY/WX    TMP DP  RH WIND       PRES   REMARKS
CULLMAN AG STN   N/A     84 N/A N/A E5          N/A
DECATUR AP     CLOUDY    82  71  69 NW8       30.02S
HUNTSVILLE AP  PTSUNNY   86  74  67 N6        30.00F HX  94
MERIDIANVILLE  CLOUDY    82  68  61 N3        30.01F
REDSTONE ARSN  MOSUNNY   84  70  63 N3        30.00F
VINEMONT AP    FAIR      87  69  54 NE5       30.05S HX  90
$$

ALZ008>010-212300-
NORTHEAST ALABAMA

CITY           SKY/WX    TMP DP  RH WIND       PRES   REMARKS
ALBERTVILLE    CLOUDY    82  73  74 N5        30.01F
FORT PAYNE       N/A     79  66  65 CALM      30.01
SCOTTSBORO HCN   N/A     84 N/A N/A MISG        N/A
VALLEY HEAD      N/A     81 N/A N/A MISG        N/A
$$

TNZ076-096-097-212300-
SOUTHEASTERN MIDDLE TENNESSEE

CITY           SKY/WX    TMP DP  RH WIND       PRES   REMARKS
TULLAHOMA      CLOUDY    73  70  88 NW13      30.06R
WINCHESTER     SUNNY     84  72  65 NE5       30.03F
$$

...SURROUNDING SITES...

CITY           SKY/WX    TMP DP  RH WIND       PRES   REMARKS
ATLANTA        TSTM      81  66  60 E15       30.00S
ANNISTON       PTSUNNY   84  65  52 N5        30.00F
BIRMINGHAM     MOSUNNY   88  68  51 NE10      30.01F HX  91
CHATTANOOGA    MOSUNNY   87  67  51 NW7       30.01S HX  90
DALTON         SUNNY     86  64  48 N5        30.02S
GADSDEN        CLOUDY    82  77  84 E3        30.01F HX  90
GOLDEN TRNGL   SUNNY     90  72  55 NW6       29.97S HX  97
HALEYVILLE     TSTM      72  72 100 NE5       30.06R FOG
JACKSON TN     SUNNY     90  70  51 W5        29.99F HX  95
MEMPHIS        MOSUNNY   90  69  50 CALM      29.98F HX  94
NASHVILLE      MOSUNNY   86  69  56 CALM      30.02S HX  90
OXFORD MS      FAIR      90  68  48 VRB5      30.00F HX  93
ROME           SUNNY     87  72  60 W3        29.99F HX  93
SAVANNAH       CLOUDY    77  72  83 E10G23    30.01R
TUPELO         PTSUNNY   92  67  43 CALM      29.97F HX  95
TUSCALOOSA     SUNNY     91  68  46 CALM      29.96F HX  95
$$

...GULF COAST WEATHER...

CITY           SKY/WX    TMP DP  RH WIND       PRES   REMARKS
GULFPORT       PTSUNNY   87  74  64 N9        29.94S HX  95
PASCAGOULA     CLOUDY    84  74  71 CALM      29.95R HX  91
MOBILE         MOSUNNY   91  69  48 NE9       29.95S HX  96
GULF SHORES    CLEAR     85  73  68 SE6       29.94F HX  91
PENSACOLA      MOSUNNY   85  74  69 S7        29.94F HX  92
DESTIN         MOSUNNY   87  74  64 SE8       29.95F HX  95
PANAMA CITY    MOSUNNY   80  68  65 CALM      29.96F
APPALACHICOLA  CLOUDY    74  73  97 N8        29.95F
$$




USA.gov is the U.S. government's official web portal to all federal, state and local government web resources and services.